ONEWEB-0310 (49096 NORAD) Tracking and Keplerian Element Data

This shows tracking and keplerian element data for the satellite.

Feedback or suggestion? Click here.




ElementValue
Catalog49096
NameONEWEB-0310
Epoch Orbit1140
Epoch Day300.91667824
Epoch Year2021
RAAN344.2084
Inclination87.5411
Eccentricity0.0020326
Argument of Perigee67.9909
Mean Anonmoly1.634
Mean Motion14.85808052
Decay Rate0.00025574
L11 49096U 21075X 21300.91667824 .00025574 00000-0 29202-2 0 9992
L22 49096 87.5411 344.2084 0020326 67.9909 1.6340 14.85808052 11405

Live tracking and technical data element details for ONEWEB-0310 (NORAD 49096). ONEWEB-0310 can be tracked NOW for your location showing map with azimuth and elevation plus other details from your city location.

Track the satellite on the map from your city or location and see movement details for azimuth, elevation, latitude, longitude, range, height, and movement on the map or in text.







IsCatalogInMostPopularTable: catalog: 49096, numindb: 20
Update: records affected: 1



GetName: 49096 ONEWEB-0310

Hit Count: updated at: Thu, 28 Oct 2021 11:02:36 GMT